Weather History for KCEZ - January, 2014

Change the Weather History Date:

Wednesday, January 15, 2014

  Actual Average Record
Temperature  
Mean Temperature 32 °F 28 °F  
Max Temperature 49 °F 41 °F 57 °F (2000)
Min Temperature 14 °F 15 °F -15 °F (2013)
Degree Days  
Heating Degree Days 33 37  
Month to date heating degree days 549 564  
Since 1 July heating degree days 3228 3222  
Cooling Degree Days 0 0  
Month to date cooling degree days 0 0  
Year to date cooling degree days 0 0  
Moisture  
Dew Point 14 °F    
Average Humidity 56    
Maximum Humidity 88    
Minimum Humidity 24    
Precipitation  
Precipitation 0.00 in 0.03 in 0.00 in (2015)
Month to date precipitation T 0.50  
Year to date precipitation T 0.50  
Sea Level Pressure  
Sea Level Pressure 30.40 in    
Wind  
Wind Speed 8 mph (NE)    
Max Wind Speed 21 mph    
Max Gust Speed 26 mph    
Visibility 10 miles    
Events      
T = Trace of Precipitation, MM = Missing Value Source: NWS Daily Summary

Daily Weather History Graph

Daily Weather History Graph

Search for Another Location

Airport or City:

Trip Planner

Search our weather history database for the weather conditions in past years. The results will help you decide how hot, cold, wet, or windy it might be!

Date:

Astronomy

Jan. 15, 2014 Rise Set
Actual Time 7:27 AM MST 5:20 PM MST
Civil Twilight 6:59 AM MST 5:49 PM MST
Nautical Twilight 6:27 AM MST 6:21 PM MST
Astronomical Twilight 5:55 AM MST 6:52 PM MST
Moon 5:19 PM MST (1/15) 6:46 AM MST (1/15)
Length of Visible Light 10h 50m
Length of Day
9h 53m
Full, 100% of the Moon is Illuminated
Jan 15
Full
Jan 15
Full
Jan 23
Last Quarter
Jan 30
New
Feb 6
First Quarter

Hourly Weather History & Observations

Time (MST) Temp. Windchill Dew Point Humidity Pressure Visibility Wind Dir Wind Speed Gust Speed Precip Events Conditions
12:53 AM 19.9 °F 8.6 °F 12.0 °F 71% 30.45 in 10.0 mi ENE 10.4 mph - N/A   Clear
1:53 AM 18.0 °F 6.9 °F 10.9 °F 74% 30.46 in 10.0 mi ENE 9.2 mph - N/A   Clear
2:53 AM 19.0 °F 11.1 °F 10.9 °F 71% 30.45 in 10.0 mi East 5.8 mph - N/A   Clear
3:53 AM 16.0 °F - 10.0 °F 77% 30.46 in 10.0 mi Calm Calm - N/A   Clear
4:53 AM 14.0 °F 5.1 °F 10.0 °F 84% 30.46 in 10.0 mi ENE 5.8 mph - N/A   Clear
5:53 AM 15.1 °F 5.2 °F 10.0 °F 80% 30.48 in 10.0 mi East 6.9 mph - N/A   Clear
6:53 AM 15.1 °F 3.3 °F 10.9 °F 84% 30.49 in 10.0 mi ENE 9.2 mph - N/A   Clear
7:53 AM 17.1 °F 8.7 °F 10.9 °F 77% 30.52 in 10.0 mi ENE 5.8 mph - N/A   Clear
8:53 AM 26.1 °F 19.4 °F 16.0 °F 66% 30.51 in 10.0 mi ENE 5.8 mph - N/A   Clear
9:53 AM 36.0 °F 31.1 °F 19.0 °F 50% 30.47 in 10.0 mi East 5.8 mph - N/A   Clear
10:53 AM 43.0 °F - 17.1 °F 35% 30.43 in 10.0 mi Calm Calm - N/A   Clear
11:53 AM 46.9 °F - 18.0 °F 32% 30.37 in 10.0 mi West 19.6 mph 25.3 mph N/A   Clear
12:53 PM 48.0 °F - 18.0 °F 30% 30.34 in 10.0 mi WNW 17.3 mph - N/A   Clear
1:53 PM 48.0 °F - 18.0 °F 30% 30.33 in 10.0 mi West 16.1 mph 23.0 mph N/A   Clear
2:53 PM 48.9 °F - 16.0 °F 27% 30.31 in 10.0 mi WNW 17.3 mph - N/A   Clear
3:53 PM 48.9 °F - 14.0 °F 25% 30.30 in 10.0 mi WNW 11.5 mph - N/A   Clear
4:53 PM 46.9 °F - 17.1 °F 30% 30.31 in 10.0 mi WNW 12.7 mph - N/A   Clear
5:53 PM 39.9 °F - 16.0 °F 38% 30.34 in 10.0 mi Calm Calm - N/A   Clear
6:53 PM 36.0 °F 30.3 °F 15.1 °F 43% 30.36 in 10.0 mi Variable 6.9 mph - N/A   Clear
7:53 PM 27.0 °F 20.5 °F 12.9 °F 56% 30.40 in 10.0 mi SE 5.8 mph - N/A   Clear
8:53 PM 24.1 °F 16.0 °F 12.9 °F 62% 30.38 in 10.0 mi ENE 6.9 mph - N/A   Clear
9:53 PM 21.0 °F 12.4 °F 12.9 °F 71% 30.35 in 10.0 mi ENE 6.9 mph - N/A   Clear
10:53 PM 19.0 °F 8.2 °F 12.0 °F 74% 30.32 in 10.0 mi ENE 9.2 mph - N/A   Clear
11:53 PM 19.0 °F 9.0 °F 12.9 °F 77% 30.31 in 10.0 mi ENE 8.1 mph - N/A   Clear